Regional Weather Roundup
Issued by NWS Portland, ME

Home | Current Version | Previous Version | Text Only | Print | Product List | Glossary On
Versions: 1 2 3 4 5 6 7 8 9 10 11 12 13 14 15 16 17 18 19 20 21 22 23 24 25 26 27 28 29 30 31 32 33 34 35 36 37 38 39 40 41 42 43 44 45 46 47 48 49 50
000
ASUS41 KGYX 251510
RWRGYX
WEATHER ROUNDUP FOR MAINE AND NEW HAMPSHIRE
NATIONAL WEATHER SERVICE GRAY ME
1100 AM EDT WED MAY 25 2016

MEZ002-005-006-010-012-015-018-020-021-024-026-027-029-251600-
MAINE

CITY           SKY/WX    TMP DP  RH WIND       PRES   REMARKS
PORTLAND       CLOUDY    58  54  86 SE7       29.98S
SANFORD        MOSUNNY   66  55  68 S7        29.99F
BAR HARBOR     PTSUNNY   61  56  83 S9        29.97F
WISCASSET      CLOUDY    59  54  83 S7        29.99F
ROCKLAND       SUNNY     58  53  84 S9        29.97S
FRYEBURG       SUNNY     70  58  65 E6        29.95F
LEWISTONAUBURN CLOUDY    61  54  77 S8        29.97S
AUGUSTA        CLOUDY    66  56  70 VRB6      29.95F
WATERVILLE     CLOUDY    64  56  75 VRB6      29.93S
BANGOR         MOSUNNY   69  56  62 S8        29.94F
GREENVILLE       N/A     66  54  65 VRB6      29.91F
MILLINOCKET    MOSUNNY   66  55  67 VRB7      29.93S
HOULTON        SUNNY     70  56  61 S10       29.89F
PRESQUE ISLE   SUNNY     72  56  57 S12       29.88F
FRENCHVILLE    SUNNY     67  55  65 S8        29.86F
CARIBOU        SUNNY     71  56  58 S12       29.87F
$$

NHZ002-005-008-009-011-012-014-251600-
NEW HAMPSHIRE

CITY           SKY/WX    TMP DP  RH WIND       PRES   REMARKS
PORTSMOUTH     MOSUNNY   65  58  78 VRB3      29.98F
ROCHESTER      SUNNY     69  59  70 VRB7      29.96F
NASHUA         SUNNY     72  59  63 E5        29.99F
MANCHESTER     MOSUNNY   71  56  58 S3        29.97F
CONCORD        SUNNY     71  55  56 CALM      29.98F
LACONIA        SUNNY     72  58  61 SW8       29.98F
PLYMOUTH       FAIR      74  56  53 W9        29.96S
BERLIN         SUNNY     76  50  40 VRB7      29.95S
WHITEFIELD     SUNNY     72  51  47 W10       29.98R
JAFFREY        SUNNY     74  47  38 W7        30.01S
KEENE          SUNNY     70  55  60 CALM      30.02S
LEBANON        SUNNY     71  56  58 CALM      29.98S
MT WASHINGTON  PTSUNNY   52  39  62 W25G38      N/A
$$

VTZ005-007-008-251600-
VERMONT

CITY           SKY/WX    TMP DP  RH WIND       PRES   REMARKS
ST JOHNSBURY     N/A     67  56  67 MISG      29.96F
MONTPELIER     FAIR      73  58  59 VRB3      30.01F
BURLINGTON     PTSUNNY   75  51  43 S13       29.96S
$$

MAZ007-012-024-CTZ003-RIZ002-NYZ038-NYZ072-251600-
SOUTHERN NEW ENGLAND AND NY

CITY           SKY/WX    TMP DP  RH WIND       PRES   REMARKS
BOSTON         SUNNY     67  58  72 SE3       30.00S
WORCESTER      SUNNY     73  49  42 W9G20     30.02S
NANTUCKET      SUNNY     61  55  81 S8        30.05R
PROVIDENCE     SUNNY     71  58  63 SE8       30.01F
HARTFORD       MOSUNNY   80  51  36 NW7       30.00F
ALBANY         MOSUNNY   75  52  44 S7        30.03F
NEW YORK CITY  MOSUNNY   79  51  37 NW10      30.06F
$$

ANZ081-ANZ082-ANZ150-NHZ014-MEZ023>029-251600-
COASTAL MARINE OBSERVATIONS

STATION/POSITION TIME  TEMP    WIND        PRES    WAVE
                       AIR SEA DIR/SP/G            HT/PER
                 (UTC) (F)     (DEG/KT/KT) (MB)    (FT/S)
MOUNT DESERT ROC 1500   49     160/ 10/ 10 1015.7R
MATINICUS ROCK   1500   49     230/  8/  9 1015.5R
ISLE OF SHOALS   1500   53     160/ 11/ 12 1015.5S
JEFFREYS LEDGE   1408      52                N/A     3/ 8
CASHES LEDGE BUO 1450   50 51  250/  6/ 10 1015.8S   3/ 8
GEORGES BANK BUO 1450   51 50              1016.3R   5/ 8
$$

.............KEY..............
   WCI - WIND CHILL
   TC  - TEMPERATURE IN CELSIUS
   VSB - VISIBILITY IN MILES
   HX  - HEAT INDEX
   FAIR- INDICATES FEW OR NO CLOUDS BELOW 12,000 FT, WITH NO
         SIGNIFICANT WEATHER AND/OR OBSTRUCTIONS TO VISIBILITY.






USA.gov is the U.S. government's official web portal to all federal, state and local government web resources and services.